FW3572 Weather Reports


Display with metric or nautical units.
time (UTC)temp
F
wind
direction
speed
MPH
gust
MPH
rain 1hr
in
rain 24hr
in
rain mn
in
humidity
%
barometer
mb
20260906073047 76 255 0.0 0.0 0.00 0.08 0.00 100 1012.9
20260906072549 76 259 0.0 4.0 0.00 0.08 0.00 100 1012.9
20260906072046 76 275 1.0 4.0 0.00 0.08 0.00 100 1013.0
20260906071546 76 257 0.0 3.0 0.00 0.08 0.00 100 1013.2
20260906071046 76 285 1.0 4.0 0.00 0.08 0.00 100 1013.2
20260906070545 76 277 1.0 4.0 0.00 0.08 0.00 100 1013.2
20260906070045 76 233 0.0 4.0 0.00 0.08 0.00 100 1013.2
20260906065545 76 233 0.0 4.0 0.00 0.08 0.00 100 1013.2
20260906065044 76 242 0.0 4.0 0.00 0.08 0.00 100 1013.4
20260906064544 76 242 0.0 5.0 0.00 0.08 0.00 100 1013.4
20260906064043 76 242 2.0 5.0 0.00 0.08 0.00 100 1013.6
20260906063542 76 246 0.0 5.0 0.00 0.08 0.00 100 1013.6
20260906063041 76 240 0.0 6.0 0.00 0.08 0.00 100 1013.7
20260906062540 76 202 2.0 6.0 0.00 0.08 0.00 100 1013.9
20260906062040 76 222 0.0 5.0 0.00 0.08 0.00 100 1013.9
20260906061540 76 238 1.0 5.0 0.00 0.08 0.00 100 1014.0
20260906061039 76 195 0.0 4.0 0.00 0.08 0.00 100 1014.1
20260906060538 76 215 1.0 4.0 0.00 0.08 0.00 100 1014.0
20260906060036 75 212 1.0 4.0 0.00 0.08 0.00 100 1014.3
20260906055538 75 210 1.0 4.0 0.00 0.08 0.00 100 1014.5
20260906055037 75 217 0.0 5.0 0.00 0.08 0.00 100 1014.6
20260906054540 75 241 2.0 5.0 0.00 0.08 0.00 100 1014.6
20260906054037 75 202 0.0 0.0 0.00 0.08 0.00 100 1014.6
20260906053533 75 202 0.0 4.0 0.00 0.08 0.00 100 1014.7
20260906053039 75 205 1.0 4.0 0.00 0.08 0.00 100 1014.7
20260906052534 75 183 0.0 2.0 0.00 0.08 0.00 100 1014.7
20260906052034 75 183 0.0 3.0 0.00 0.08 0.00 100 1014.8
20260906051546 75 175 0.0 3.0 0.00 0.08 0.00 100 1014.9
20260906051031 75 191 0.0 4.0 0.00 0.08 0.00 100 1014.9
20260906050528 75 192 0.0 4.0 0.00 0.08 0.00 100 1015.0
20260906050026 75 192 1.0 4.0 0.00 0.08 0.00 100 1014.9
20260906045528 75 195 2.0 3.0 0.00 0.08 0.00 100 1015.1
20260906045026 75 200 1.0 3.0 0.00 0.08 0.00 100 1015.1
20260906044525 75 213 0.0 3.0 0.00 0.08 0.00 100 1015.1
20260906044025 75 209 0.0 3.0 0.00 0.08 0.00 100 1015.1
20260906043525 75 207 0.0 4.0 0.00 0.08 0.00 100 1015.1
20260906043025 75 207 1.0 4.0 0.00 0.08 0.00 100 1015.3
20260906042525 75 222 1.0 3.0 0.00 0.08 0.00 100 1015.3
20260906042024 75 222 0.0 3.0 0.00 0.08 0.00 100 1015.3
20260906041524 75 204 0.0 3.0 0.00 0.08 0.00 100 1015.3
20260906041025 75 205 0.0 6.0 0.00 0.08 0.00 100 1015.2
20260906040523 75 204 2.0 12.0 0.00 0.08 0.00 100 1015.1
20260906040028 75 222 3.0 12.0 0.00 0.08 0.00 100 1014.9
20260906035520 75 192 2.0 6.0 0.00 0.08 0.00 100 1015.0
20260906035023 75 219 3.0 8.0 0.00 0.08 0.00 100 1015.0
20260906034522 75 213 3.0 6.0 0.00 0.08 0.08 100 1014.8
20260906034018 75 180 2.0 8.0 0.00 0.08 0.08 100 1014.9
20260906033519 75 227 1.0 8.0 0.00 0.08 0.08 100 1015.0
20260906033030 75 235 2.0 7.0 0.00 0.08 0.08 100 1014.9
20260906032518 75 240 2.0 7.0 0.00 0.08 0.08 100 1014.7
20260906032019 75 207 1.0 7.0 0.00 0.08 0.08 100 1014.7
20260906031518 75 219 2.0 8.0 0.00 0.08 0.08 100 1014.9
20260906031018 75 228 1.0 5.0 0.01 0.08 0.08 100 1015.0
20260906030518 75 236 2.0 4.0 0.01 0.08 0.08 100 1015.1
20260906030018 75 236 0.0 0.0 0.01 0.08 0.08 100 1015.2
20260906025517 75 236 0.0 0.0 0.01 0.08 0.08 100 1015.2
20260906025019 75 237 0.0 0.0 0.01 0.08 0.08 100 1015.3
20260906024532 75 237 0.0 0.0 0.01 0.08 0.08 100 1015.2
20260906024016 75 237 0.0 3.0 0.01 0.08 0.08 100 1015.1
20260906023516 75 237 0.0 5.0 0.01 0.08 0.08 100 1015.1
20260906023019 75 236 0.0 4.0 0.01 0.08 0.08 100 1015.1
20260906022516 75 206 0.0 4.0 0.01 0.08 0.08 100 1015.2
20260906022019 75 194 0.0 4.0 0.01 0.08 0.08 100 1015.1
20260906021517 75 224 0.0 4.0 0.01 0.08 0.08 100 1015.3
20260906021016 75 220 1.0 5.0 0.00 0.07 0.07 100 1015.3
20260906020516 75 236 1.0 5.0 0.00 0.07 0.07 100 1015.1
20260906020015 75 242 2.0 4.0 0.00 0.07 0.07 100 1015.2
20260906015514 75 248 0.0 3.0 0.00 0.07 0.07 100 1015.1
20260906015015 76 257 0.0 4.0 0.00 0.07 0.07 100 1015.1
20260906014524 76 200 0.0 4.0 0.00 0.07 0.07 100 1015.1
20260906014013 76 288 1.0 4.0 0.00 0.07 0.07 100 1015.1
20260906013514 75 253 1.0 4.0 0.00 0.07 0.07 100 1015.0
20260906013034 76 233 0.0 4.0 0.00 0.07 0.07 100 1014.9
20260906012517 75 234 2.0 5.0 0.00 0.07 0.07 100 1014.9
20260906012014 75 192 2.0 7.0 0.00 0.07 0.07 100 1015.1
20260906011518 76 167 2.0 6.0 0.00 0.07 0.07 100 1015.2
20260906011013 76 227 3.0 6.0 0.00 0.07 0.07 100 1015.3
20260906010514 76 188 3.0 10.0 0.00 0.07 0.07 100 1015.4
20260906010013 76 161 3.0 10.0 0.00 0.07 0.07 100 1015.5
20260906005512 76 165 2.0 10.0 0.00 0.07 0.07 100 1015.7
20260906005012 75 165 5.0 13.0 0.00 0.07 0.07 100 1015.9
20260906004511 75 142 4.0 15.0 0.00 0.07 0.07 100 1015.9
20260906004012 75 181 8.0 15.0 0.00 0.07 0.07 100 1016.0
20260906003511 75 157 5.0 15.0 0.00 0.07 0.07 100 1016.1
20260906003012 75 135 9.0 15.0 0.00 0.07 0.07 100 1016.1
20260906002509 76 163 6.0 13.0 0.00 0.07 0.07 100 1016.1
20260906002008 76 181 5.0 13.0 0.00 0.07 0.07 100 1016.0
20260906001506 77 222 5.0 11.0 0.00 0.07 0.07 100 1016.0
20260906001005 78 246 5.0 17.0 0.00 0.07 0.07 100 1015.8
20260906000506 80 208 5.0 17.0 0.00 0.07 0.07 100 1016.1
20260906000004 80 94 0.0 2.0 0.00 0.07 0.07 100 1015.3
20260905235506 80 96 0.0 4.0 0.00 0.07 0.07 100 1015.3
20260905235004 80 44 1.0 6.0 0.00 0.07 0.07 100 1015.5
20260905234504 80 119 2.0 16.0 0.00 0.07 0.07 100 1015.7
20260905234003 80 51 5.0 16.0 0.00 0.07 0.07 100 1015.8
20260905233503 81 323 6.0 14.0 0.00 0.07 0.07 100 1015.8
20260905233003 81 97 1.0 7.0 0.00 0.07 0.07 100 1015.2
20260905232503 81 104 2.0 4.0 0.00 0.07 0.07 100 1014.8
20260905232003 81 132 0.0 4.0 0.00 0.07 0.07 100 1014.6
20260905231503 81 132 2.0 6.0 0.00 0.07 0.07 100 1014.5
20260905231002 81 153 2.0 5.0 0.00 0.07 0.07 100 1014.6
20260905230503 81 163 3.0 6.0 0.00 0.07 0.07 100 1014.6
20260905230002 80 144 2.0 6.0 0.00 0.07 0.07 100 1014.5
20260905225502 80 130 3.0 7.0 0.00 0.07 0.07 100 1014.4
20260905225002 80 117 2.0 7.0 0.00 0.07 0.07 100 1014.5
20260905224503 80 156 2.0 7.0 0.00 0.07 0.07 100 1014.8
20260905224001 80 130 3.0 7.0 0.00 0.07 0.07 100 1014.8
20260905223501 80 150 2.0 10.0 0.00 0.07 0.07 100 1014.9
20260905223002 79 109 3.0 13.0 0.00 0.07 0.07 100 1015.0
20260905222501 79 133 4.0 13.0 0.00 0.07 0.07 100 1014.7
20260905222100 79 136 3.0 9.0 0.00 0.07 0.07 100 1014.5
20260905221615 79 126 1.0 7.0 0.01 0.07 0.07 100 1014.2
20260905221102 79 122 2.0 7.0 0.01 0.07 0.07 100 1013.7
20260905220600 79 117 2.0 10.0 0.01 0.07 0.07 100 1013.6
20260905220059 79 111 3.0 10.0 0.01 0.07 0.07 100 1013.6
20260905215602 79 122 2.0 6.0 0.02 0.07 0.07 100 1013.9
20260905215058 79 98 0.0 4.0 0.05 0.07 0.07 100 1014.1
20260905214601 79 93 2.0 5.0 0.07 0.07 0.07 100 1014.1
20260905214101 80 51 1.0 5.0 0.07 0.07 0.07 100 1014.4
20260905213558 80 5 1.0 5.0 0.07 0.07 0.07 100 1014.6
20260905213105 80 217 0.0 3.0 0.07 0.07 0.07 100 1014.9
20260905212558 79 248 0.0 2.0 0.07 0.07 0.07 100 1014.8
20260905212059 79 252 1.0 5.0 0.07 0.07 0.07 100 1015.1
20260905211601 80 30 0.0 0.0 0.06 0.06 0.06 100 1015.0
20260905211057 80 30 0.0 0.0 0.06 0.06 0.06 100 1014.5
20260905210557 80 30 0.0 0.0 0.06 0.06 0.06 100 1014.6
20260905210059 81 30 0.0 4.0 0.06 0.06 0.06 100 1014.6
20260905205054 84 307 2.0 7.0 0.02 0.02 0.02 100 1014.7
20260905204555 85 233 3.0 10.0 0.00 0.00 0.00 100 1014.4
20260905204053 85 343 2.0 11.0 0.00 0.00 0.00 100 1014.5
20260905203553 87 181 1.0 14.0 0.00 0.00 0.00 100 1014.4
20260905203055 87 155 6.0 14.0 0.00 0.00 0.00 100 1014.1
20260905202654 87 150 4.0 13.0 0.00 0.00 0.00 100 1014.3
20260905202055 87 146 6.0 13.0 0.00 0.00 0.00 100 1013.9
20260905201612 88 102 6.0 14.0 0.00 0.00 0.00 100 1014.0
20260905201052 88 126 8.0 17.0 0.00 0.00 0.00 100 1013.9
20260905200552 88 119 8.0 17.0 0.00 0.00 0.00 100 1013.7
20260905200054 88 152 9.0 21.0 0.00 0.00 0.00 100 1013.3
20260905195553 88 174 12.0 21.0 0.00 0.00 0.00 100 1013.4
20260905195050 88 136 6.0 18.0 0.00 0.00 0.00 100 1013.7
20260905194550 88 153 7.0 18.0 0.00 0.00 0.00 100 1014.0
20260905194051 88 111 7.0 18.0 0.00 0.00 0.00 100 1014.1
20260905193550 88 130 7.0 18.0 0.00 0.00 0.00 100 1014.1
20260905193056 88 133 10.0 18.0 0.00 0.00 0.00 100 1014.5
20260905192546 89 105 7.0 15.0 0.00 0.00 0.00 100 1014.5
20260905192045 88 151 7.0 15.0 0.00 0.00 0.00 100 1014.3
20260905191546 88 101 5.0 16.0 0.00 0.00 0.00 100 1014.4
20260905191045 88 194 8.0 15.0 0.00 0.00 0.00 100 1014.6
20260905190545 90 153 7.0 12.0 0.00 0.00 0.00 100 1014.6
20260905190043 90 121 4.0 12.0 0.00 0.00 0.00 100 1014.6
20260905185542 89 93 5.0 12.0 0.00 0.00 0.00 100 1014.5
20260905185041 89 124 5.0 12.0 0.00 0.00 0.00 100 1014.6
20260905184544 89 116 4.0 11.0 0.00 0.03 0.00 100 1014.5
20260905184041 89 151 3.0 10.0 0.00 0.03 0.00 100 1014.4
20260905183541 90 124 3.0 10.0 0.00 0.03 0.00 100 1014.3
20260905183039 91 336 1.0 10.0 0.00 0.03 0.00 100 1014.4
20260905182537 92 111 2.0 9.0 0.00 0.03 0.00 100 1014.5
20260905182036 92 141 5.0 9.0 0.00 0.03 0.00 100 1014.6
20260905181535 94 125 1.0 6.0 0.00 0.03 0.00 100 1014.6
20260905181037 92 163 1.0 7.0 0.00 0.03 0.00 100 1014.6
20260905180530 94 195 0.0 4.0 0.00 0.03 0.00 100 1014.7
20260905180029 94 227 0.0 5.0 0.00 0.03 0.00 100 1014.8
20260905175530 93 273 1.0 9.0 0.00 0.03 0.00 100 1014.8
20260905175027 92 246 0.0 9.0 0.00 0.03 0.00 100 1014.8
20260905174525 94 298 1.0 8.0 0.00 0.03 0.00 100 1014.9
20260905174024 92 236 2.0 8.0 0.00 0.03 0.00 100 1015.0
20260905173522 92 237 1.0 9.0 0.00 0.03 0.00 100 1015.0
20260905173020 92 192 2.0 10.0 0.00 0.03 0.00 100 1015.0
20260905172519 92 241 5.0 11.0 0.00 0.03 0.00 100 1015.1
20260905172019 93 253 2.0 9.0 0.00 0.03 0.00 100 1015.1
20260905171518 94 178 0.0 13.0 0.00 0.03 0.00 100 1015.1
20260905171015 93 227 1.0 13.0 0.00 0.03 0.00 100 1015.4
20260905170513 93 240 1.0 8.0 0.00 0.03 0.00 100 1015.3
20260905170012 92 244 3.0 11.0 0.00 0.03 0.00 100 1015.4
20260905165511 92 232 5.0 11.0 0.00 0.03 0.00 100 1015.4
20260905165011 92 195 1.0 6.0 0.00 0.03 0.00 100 1015.5
20260905164507 93 240 2.0 7.0 0.00 0.03 0.00 100 1015.6
20260905164008 92 307 1.0 10.0 0.00 0.03 0.00 100 1015.6
20260905163504 91 242 4.0 12.0 0.00 0.03 0.00 100 1015.7
20260905163002 91 250 4.0 12.0 0.00 0.03 0.00 100 1015.8
20260905162501 91 288 1.0 9.0 0.00 0.03 0.00 100 1015.8
20260905162000 91 247 1.0 10.0 0.00 0.03 0.00 100 1016.0
20260905161605 91 297 1.0 10.0 0.00 0.03 0.00 100 1016.1
20260905161100 91 257 3.0 8.0 0.00 0.03 0.00 100 1016.2
20260905160600 91 167 2.0 8.0 0.00 0.03 0.00 100 1016.2
20260905160100 91 233 3.0 8.0 0.00 0.03 0.00 100 1016.2
20260905155558 91 294 3.0 8.0 0.00 0.03 0.00 100 1016.2
20260905155056 90 227 4.0 10.0 0.00 0.03 0.00 100 1016.3
20260905154616 89 244 4.0 11.0 0.00 0.03 0.00 100 1016.3
20260905154056 88 244 4.0 13.0 0.00 0.03 0.00 100 1016.4
20260905153552 88 246 6.0 13.0 0.00 0.03 0.00 100 1016.5
20260905153052 88 211 2.0 9.0 0.00 0.03 0.00 100 1016.5
20260905152551 89 238 3.0 12.0 0.00 0.03 0.00 100 1016.6
20260905152047 89 252 5.0 12.0 0.00 0.03 0.00 100 1016.6
20260905151546 88 232 3.0 7.0 0.00 0.03 0.00 100 1016.5
20260905151043 88 150 1.0 7.0 0.00 0.03 0.00 100 1016.7
20260905150542 88 221 2.0 12.0 0.00 0.03 0.00 100 1016.6
20260905150040 88 188 4.0 12.0 0.00 0.03 0.00 100 1016.7
20260905145539 88 235 0.0 11.0 0.00 0.03 0.00 100 1016.6
20260905145037 88 226 3.0 9.0 0.00 0.03 0.00 100 1016.6
20260905144536 88 231 2.0 8.0 0.00 0.03 0.00 100 1016.5
20260905144035 87 191 1.0 10.0 0.00 0.03 0.00 100 1016.5
20260905143533 86 202 4.0 10.0 0.00 0.03 0.00 100 1016.6
20260905143033 86 216 2.0 10.0 0.00 0.03 0.00 100 1016.6
20260905142529 86 219 3.0 13.0 0.00 0.03 0.00 100 1016.6
20260905142028 86 234 6.0 13.0 0.00 0.03 0.00 100 1016.6
20260905141533 86 225 1.0 8.0 0.00 0.03 0.00 100 1016.5
20260905141026 86 177 4.0 9.0 0.00 0.03 0.00 100 1016.5
20260905140523 86 159 3.0 7.0 0.00 0.03 0.00 100 1016.6
20260905140024 86 184 2.0 7.0 0.00 0.03 0.00 100 1016.7
20260905135520 85 212 2.0 8.0 0.00 0.03 0.00 100 1016.8
20260905135021 85 185 2.0 8.0 0.00 0.03 0.00 100 1016.7
20260905134517 85 215 1.0 5.0 0.00 0.03 0.00 100 1016.6
20260905134016 84 236 1.0 7.0 0.00 0.03 0.00 100 1016.7
20260905133516 84 188 1.0 7.0 0.00 0.03 0.00 100 1016.6
20260905133016 84 229 2.0 5.0 0.00 0.03 0.00 100 1016.6
20260905132514 84 218 1.0 7.0 0.00 0.03 0.00 100 1016.6
20260905132013 83 200 1.0 5.0 0.00 0.03 0.00 100 1016.6
20260905131513 83 207 2.0 5.0 0.00 0.03 0.00 100 1016.6
20260905131012 83 232 1.0 4.0 0.00 0.03 0.00 100 1016.6
20260905130514 83 202 0.0 5.0 0.00 0.03 0.00 100 1016.7
20260905130012 82 253 2.0 6.0 0.00 0.03 0.00 100 1016.6
20260905125511 82 224 0.0 3.0 0.00 0.03 0.00 100 1016.7
20260905125011 82 223 0.0 3.0 0.00 0.03 0.00 100 1016.7
20260905124511 81 221 0.0 0.0 0.00 0.03 0.00 100 1016.7
20260905124010 81 225 0.0 3.0 0.00 0.03 0.00 100 1016.6
20260905123511 81 225 0.0 3.0 0.00 0.03 0.00 100 1016.7
20260905123016 80 225 0.0 4.0 0.00 0.03 0.00 100 1016.7
20260905122513 80 223 0.0 4.0 0.00 0.03 0.00 100 1016.6
20260905122010 79 222 0.0 4.0 0.00 0.03 0.00 100 1016.6
20260905121510 79 207 0.0 0.0 0.00 0.03 0.00 100 1016.7
20260905121010 79 207 0.0 0.0 0.00 0.03 0.00 100 1016.7
20260905120512 79 207 0.0 0.0 0.00 0.03 0.00 100 1016.4
20260905120009 79 207 0.0 0.0 0.00 0.03 0.00 100 1016.5
20260905115509 79 207 0.0 0.0 0.00 0.03 0.00 100 1016.5
20260905115009 79 207 0.0 0.0 0.00 0.03 0.00 100 1016.4
20260905114510 79 207 0.0 0.0 0.00 0.03 0.00 100 1016.3
20260905114009 79 207 0.0 0.0 0.00 0.03 0.00 100 1016.3
20260905113509 79 207 0.0 0.0 0.00 0.03 0.00 100 1016.2
20260905113008 79 207 0.0 0.0 0.00 0.03 0.00 100 1016.1
20260905112509 79 207 0.0 0.0 0.00 0.03 0.00 100 1016.1
20260905112013 79 207 0.0 0.0 0.00 0.03 0.00 100 1016.1
20260905111508 79 207 0.0 0.0 0.00 0.03 0.00 100 1016.0
20260905111007 78 207 0.0 0.0 0.00 0.03 0.00 100 1016.0
20260905110511 78 207 0.0 0.0 0.00 0.03 0.00 100 1015.9
20260905110008 79 207 0.0 0.0 0.00 0.03 0.00 100 1015.9
20260905105506 79 207 0.0 0.0 0.00 0.03 0.00 100 1015.9
20260905105009 78 206 0.0 0.0 0.00 0.03 0.00 100 1015.7
20260905104506 79 206 0.0 0.0 0.00 0.03 0.00 100 1015.7
20260905104010 78 206 0.0 0.0 0.00 0.03 0.00 100 1015.6
20260905103505 78 206 0.0 0.0 0.00 0.03 0.00 100 1015.6
20260905103004 78 206 0.0 0.0 0.00 0.03 0.00 100 1015.6
20260905102505 79 206 0.0 0.0 0.00 0.03 0.00 100 1015.6
20260905102009 79 206 0.0 0.0 0.00 0.03 0.00 100 1015.7
20260905101502 79 206 0.0 0.0 0.00 0.03 0.00 100 1015.7
20260905101002 79 206 0.0 0.0 0.00 0.03 0.00 100 1015.6
20260905100502 79 206 0.0 0.0 0.00 0.03 0.00 100 1015.6
20260905100004 79 206 0.0 0.0 0.00 0.03 0.00 100 1015.5
20260905095501 79 206 0.0 0.0 0.00 0.03 0.00 100 1015.5
20260905095003 79 206 0.0 0.0 0.00 0.03 0.00 100 1015.7
20260905094500 79 206 0.0 0.0 0.00 0.03 0.00 100 1015.6
20260905094001 79 206 0.0 0.0 0.00 0.03 0.00 100 1015.6
20260905093501 79 206 0.0 0.0 0.00 0.03 0.00 100 1015.7
20260905093001 79 206 0.0 0.0 0.00 0.03 0.00 100 1015.7
20260905092602 79 206 0.0 0.0 0.00 0.03 0.00 100 1015.7
20260905092100 79 206 0.0 0.0 0.00 0.03 0.00 100 1015.6
20260905091636 79 206 0.0 0.0 0.00 0.03 0.00 100 1015.5
20260905091101 79 206 0.0 0.0 0.00 0.03 0.00 100 1015.6
20260905090600 79 206 0.0 0.0 0.00 0.03 0.00 100 1015.7
20260905090100 79 206 0.0 0.0 0.00 0.03 0.00 100 1015.6
20260905085600 79 206 0.0 0.0 0.00 0.03 0.00 100 1015.5
20260905085059 79 206 0.0 0.0 0.00 0.03 0.00 100 1015.5
20260905084613 79 205 0.0 0.0 0.00 0.03 0.00 100 1015.6
20260905084059 79 205 0.0 1.0 0.00 0.03 0.00 100 1015.6
20260905083559 79 205 0.0 2.0 0.00 0.03 0.00 100 1015.5
20260905083059 79 205 0.0 2.0 0.00 0.03 0.00 100 1015.5
20260905082558 79 208 0.0 2.0 0.00 0.03 0.00 100 1015.5
20260905082059 79 209 0.0 2.0 0.00 0.03 0.00 100 1015.5
20260905081558 79 209 0.0 0.0 0.00 0.03 0.00 100 1015.6
20260905081057 79 210 0.0 0.0 0.00 0.03 0.00 100 1015.6
20260905080558 79 210 0.0 0.0 0.00 0.03 0.00 100 1015.6
20260905080106 79 210 0.0 0.0 0.00 0.03 0.00 100 1015.6
20260905075557 79 210 0.0 0.0 0.00 0.03 0.00 100 1015.6
20260905075101 79 209 0.0 0.0 0.00 0.03 0.00 100 1015.7
20260905074614 79 209 0.0 1.0 0.00 0.03 0.00 100 1015.6
20260905074057 79 209 0.0 2.0 0.00 0.03 0.00 100 1015.7
20260905073655 79 209 0.0 2.0 0.00 0.03 0.00 100 1015.8